SCP
2 1 0 0 1 0 0 0 0 0 0 0 0 0 1 1 1 1 1 2 2 2 2 1 2 3 3 3 3 2 1 1 1 1 1 1 1 2 1 1 1 1 1 0 1 1 1 1 1
1 1 0 1 1 0 0 0 0 0 0 0 0 0 1 1 1 1 2 2 2 2 2 2 2 3 4 4 3 2 2 1 1 2 1 1 2 2 2 1 1 1 1 1 1 1 1 1 1
0 0 0 1 1 0 0 0 0 0 0 0 0 0 1 1 1 2 2 3 3 2 2 2 2 3 4 4 3 2 2 1 2 2 2 2 2 2 2 1 1 1 1 1 1 0 0 0 0
0 0 1 1 0 0 0 0 0 0 0 0 0 0 1 1 1 2 3 4 3 3 3 2 3 3 4 4 3 3 2 2 2 2 2 2 2 2 2 2 1 1 1 1 1 0 0 0 0
0 0 0 1 0 0 0 0 0 0 0 0 0 0 1 1 2 3 4 4 3 3 3 3 3 3 4 4 3 3 2 2 2 2 2 2 2 2 2 2 1 1 1 1 1 0 0 0 0
0 0 0 0 0 0 0 0 0 0 0 0 0 0 1 1 3 4 5 4 3 3 3 3 3 3 3 4 4 3 3 2 2 2 1 2 2 2 2 1 1 1 1 1 1 1 1 0 0
0 0 0 0 0 0 0 0 0 0 0 0 0 0 1 2 4 6 6 5 4 3 3 3 3 3 3 3 4 3 3 3 2 2 1 1 2 2 1 1 1 1 1 1 1 1 1 1 0
0 0 0 0 0 0 0 0 0 0 0 0 0 0 1 4 7 8 8 7 6 4 3 3 3 3 3 3 3 3 3 3 2 2 1 1 1 1 1 1 1 1 1 1 1 1 1 1 0
0 0 0 0 0 0 0 0 0 0 1 1 1 1 2 6 8 9 8 7 6 4 3 2 3 3 3 3 3 2 2 2 2 1 1 1 1 1 1 0 0 1 1 1 1 1 1 0 0
0 0 0 0 0 0 0 0 0 0 1 1 1 1 3 5 7 6 6 5 5 4 3 2 3 3 3 3 2 2 2 2 1 1 1 1 1 1 0 0 0 0 1 1 0 0 0 0 0
0 0 0 0 0 0 0 0 0 0 1 1 1 2 3 4 5 4 3 3 3 3 3 2 3 3 3 2 2 2 2 2 1 1 1 1 1 1 0 0 0 0 0 0 0 0 0 0 0
0 0 0 0 0 0 0 0 0 0 0 1 1 2 3 4 4 4 4 3 3 3 3 2 3 3 3 2 1 1 1 1 1 1 1 1 1 1 0 0 0 0 0 0 0 0 0 0 0
0 0 0 0 0 0 0 0 0 0 1 1 1 1 2 3 4 4 4 4 3 3 3 2 2 2 2 1 1 1 1 1 1 1 0 1 1 1 0 0 0 0 0 0 0 0 0 0 0
0 0 0 0 0 0 0 0 0 0 1 2 1 1 1 2 2 3 4 3 2 2 2 1 1 1 1 1 1 1 1 1 0 0 0 1 1 1 0 0 0 0 0 0 0 0 0 0 0
0 0 0 0 0 0 0 0 0 1 1 2 2 1 1 1 2 3 3 2 1 1 1 1 1 1 1 1 1 1 1 0 0 0 0 1 1 1 0 0 0 0 0 0 0 0 0 0 0
0 0 0 0 0 0 0 0 0 1 2 2 2 1 1 1 1 2 1 1 0 1 1 1 1 1 1 1 1 1 1 1 0 0 0 1 1 1 0 0 0 0 0 0 0 0 0 0 0
0 0 0 0 0 0 0 0 0 1 1 2 1 1 1 1 1 0 0 0 0 1 1 1 1 1 1 1 1 1 1 1 0 0 0 1 1 1 1 0 0 0 0 0 0 0 0 0 0
0 0 0 0 0 0 0 0 0 0 1 1 1 1 1 1 0 0 0 0 0 1 1 2 2 1 1 1 1 1 0 0 0 0 0 1 1 1 1 1 0 0 0 0 0 0 0 0 0
0 0 0 0 0 0 0 0 0 0 0 0 0 0 0 0 0 0 0 0 0 1 2 2 2 1 1 1 0 0 0 0 0 0 0 0 1 1 1 1 1 0 0 0 0 0 0 0 0
0 0 0 0 0 0 0 0 0 0 0 0 0 0 0 0 0 0 0 0 1 1 1 2 1 1 1 1 0 0 0 0 0 0 0 0 1 1 1 1 1 1 0 0 0 0 0 0 0
0 0 0 0 0 0 0 0 0 0 0 0 0 0 0 0 0 0 0 0 0 1 1 1 1 1 1 1 1 0 0 0 0 0 0 1 1 1 1 1 1 1 1 1 0 0 0 0 0
0 0 0 0 0 0 0 0 0 0 0 0 0 0 0 0 0 0 0 0 0 0 1 1 1 1 1 1 1 1 1 1 0 0 0 1 1 1 1 1 1 1 1 1 0 0 0 0 0
0 0 0 0 0 0 0 0 0 0 0 0 0 0 0 0 0 0 0 0 0 0 0 0 0 0 1 1 1 1 1 1 1 1 1 1 1 1 1 1 1 1 1 0 0 0 0 0 0
0 0 0 0 0 0 0 0 0 0 0 0 0 0 0 0 0 0 0 0 0 0 0 0 0 0 0 1 1 1 1 1 1 1 1 1 1 1 1 1 1 1 0 0 0 0 0 0 0
0 0 0 0 0 0 0 0 0 0 0 0 0 0 0 0 0 0 0 0 0 0 0 0 0 0 0 0 1 1 1 1 1 1 1 0 0 0 0 0 0 0 0 0 0 0 0 0 0
0 0 0 0 0 0 0 0 0 0 0 0 0 0 0 0 0 0 0 0 0 0 0 0 0 0 0 0 0 0 0 0 0 0 0 0 0 0 0 0 0 0 0 0 0 0 0 0 0
0 0 0 0 0 0 0 0 0 0 0 0 0 0 0 0 0 0 0 0 0 0 0 0 0 0 0 0 0 0 0 0 0 0 0 0 0 0 0 0 0 0 0 0 0 0 0 0 0
0 0 0 0 0 0 0 0 0 0 0 0 0 0 0 0 0 0 0 0 0 0 0 0 0 0 0 0 0 0 0 0 0 0 0 0 0 0 0 0 0 0 0 0 0 0 0 0 0
0 0 0 0 0 0 0 0 0 0 0 0 0 0 0 0 0 0 0 0 0 0 0 0 0 0 0 0 0 0 0 0 0 0 0 0 0 0 0 0 0 0 0 0 0 0 0 0 0
0 0 0 0 0 0 0 0 0 0 0 0 0 0 0 0 0 0 0 0 0 0 0 0 0 0 0 0 0 0 0 0 0 0 0 0 0 0 0 0 0 0 0 0 0 0 0 0 0
Wind_Speed
8 5 2 4 6 5 2 4 2 1 1 1 3 6 7 4 3 4 1 5 7 7 5 7 8 9 10 10 10 10 9 9 9 10 10 10 10 10 10 10 10 10 11 11 11 11 11 11 11
3 3 4 5 5 2 4 4 3 2 2 2 4 5 6 3 2 4 2 3 8 7 5 6 8 9 10 10 10 9 9 9 9 9 9 9 9 9 9 10 10 10 10 10 10 10 10 10 10
3 2 4 5 4 5 5 3 3 2 0 2 4 4 4 2 2 2 2 5 6 6 5 6 8 9 9 10 10 9 9 9 9 9 9 9 9 9 9 9 9 10 10 10 9 9 9 9 9
3 4 5 4 3 5 5 3 2 0 2 3 4 4 3 1 1 2 5 7 7 6 5 6 8 9 9 10 10 9 9 9 8 8 8 9 9 9 8 9 9 9 9 9 9 9 8 8 8
4 4 4 1 3 4 3 3 1 1 1 1 3 4 2 4 3 6 7 7 7 5 5 6 8 9 9 9 10 9 9 9 9 8 8 8 9 9 9 9 9 8 8 8 8 7 7 7 7
4 4 4 2 3 3 3 3 0 1 1 2 3 4 1 1 4 5 6 6 6 6 5 5 7 8 8 8 9 9 9 8 8 8 8 8 8 9 8 8 8 8 7 7 7 7 6 6 6
4 4 3 3 3 3 3 2 1 1 1 1 2 5 1 0 3 5 6 6 6 6 5 3 4 5 6 8 8 8 8 8 8 8 7 7 7 7 8 8 7 7 7 6 6 6 6 6 6
4 4 2 2 3 3 3 2 1 1 1 1 3 6 4 3 3 6 6 6 6 5 4 3 3 3 3 4 7 8 7 7 7 7 7 7 6 6 7 6 6 6 6 6 6 6 5 5 6
4 4 2 3 4 2 2 2 3 2 3 3 2 2 3 6 6 7 6 5 5 4 3 3 3 3 3 3 5 6 6 6 6 5 7 6 3 3 3 4 5 5 5 5 5 5 5 5 5
4 3 5 3 2 1 2 2 2 3 4 3 3 3 5 7 7 7 6 6 4 3 2 2 3 2 2 3 3 2 3 3 3 3 3 3 2 2 3 4 4 4 4 4 4 5 5 4 2
3 5 3 1 1 1 1 2 3 3 1 1 2 4 5 5 5 6 5 5 5 4 3 2 2 2 2 2 2 2 1 2 2 3 3 2 2 2 2 2 2 2 3 2 3 3 2 2 1
2 2 2 1 0 1 1 1 2 1 2 2 3 5 6 5 5 5 5 4 4 4 3 2 2 2 2 2 2 2 2 2 2 2 3 3 2 2 2 1 1 1 1 1 1 1 1 1 1
2 1 1 1 2 1 1 1 1 2 2 1 3 4 4 4 3 3 4 4 4 4 3 3 3 3 2 3 2 2 2 2 2 2 2 3 2 2 2 1 1 1 1 1 1 1 1 1 1
2 1 1 1 0 0 1 1 1 3 1 2 3 2 3 3 4 3 3 3 3 4 4 3 3 4 3 3 2 2 2 2 2 2 2 2 2 2 2 2 1 1 1 1 1 0 0 0 1
1 1 3 1 1 1 2 3 3 5 1 1 1 1 1 2 2 4 4 4 4 4 4 3 3 3 4 4 3 2 2 2 2 1 2 2 2 2 2 2 1 0 0 1 1 1 1 1 1
2 2 1 3 2 2 3 6 5 3 3 2 2 1 1 2 2 3 3 3 3 3 4 4 3 4 3 3 3 2 2 2 2 1 2 2 2 2 2 2 1 0 0 1 1 1 1 1 1
1 2 4 4 2 2 3 5 5 3 3 3 3 2 2 1 1 1 3 3 4 4 4 4 4 4 3 3 3 2 2 2 1 1 1 2 2 2 2 2 1 1 1 1 0 1 1 0 1
4 4 4 5 2 2 3 6 5 3 3 4 4 3 2 2 2 1 1 3 3 4 4 4 4 4 4 3 3 2 2 2 1 1 1 2 2 2 2 1 1 1 1 1 1 1 1 1 0
3 3 4 4 2 2 5 7 7 5 3 4 4 4 3 3 2 0 1 2 3 3 4 3 3 3 3 2 2 2 1 1 1 1 2 2 1 2 2 1 1 1 1 0 0 0 1 1 1
2 2 3 3 2 2 5 8 7 5 6 6 7 6 5 3 1 0 1 2 2 3 3 3 3 3 2 2 1 1 1 1 1 1 2 2 1 1 2 2 1 1 1 1 0 1 0 0 1
2 3 4 3 3 2 2 7 5 4 4 4 5 5 5 6 5 3 1 1 2 2 3 2 2 3 2 3 2 2 2 2 1 1 1 1 2 2 1 1 1 1 1 1 0 0 1 1 0
4 3 3 2 1 3 1 5 7 4 4 5 5 4 5 5 4 4 3 2 2 2 2 2 2 2 2 3 3 3 2 2 1 1 0 1 1 1 1 1 1 1 1 1 1 1 1 1 1
4 2 1 2 2 2 2 3 8 2 4 7 7 6 5 5 5 5 4 3 2 2 2 2 2 2 2 2 3 3 2 1 1 1 1 1 1 1 1 1 0 0 1 1 1 1 1 1 1
2 3 3 3 3 4 6 5 8 5 7 5 5 5 5 4 4 3 2 3 2 2 2 2 3 2 2 2 2 3 3 2 2 1 1 0 1 1 1 1 1 0 1 1 1 1 1 1 1
3 5 3 3 2 7 4 5 10 6 5 6 6 5 4 4 4 3 3 3 2 2 2 2 3 2 2 2 1 2 2 3 3 2 1 1 0 0 1 1 1 1 1 1 1 1 1 2 2
4 6 6 5 5 5 2 7 8 4 3 2 2 3 3 4 4 4 4 4 3 2 2 2 3 2 2 2 1 1 1 1 1 1 1 1 1 1 1 1 1 1 1 0 0 0 0 0 1
4 4 4 4 1 3 6 6 7 2 1 1 1 2 3 4 4 4 3 3 3 3 2 2 2 2 1 1 1 1 1 1 1 1 1 0 1 1 1 1 1 1 1 0 0 0 0 0 0
3 5 4 4 3 5 6 6 6 4 4 3 2 3 3 2 3 3 3 3 3 2 2 2 2 2 2 1 1 1 0 1 1 1 0 0 1 0 0 0 0 1 1 0 0 0 0 0 1
3 3 4 3 4 4 5 8 5 7 6 5 5 4 4 4 4 3 2 2 2 2 2 1 1 1 1 1 1 1 0 1 1 1 0 0 0 0 0 0 0 0 1 1 1 1 1 1 1
4 5 6 5 5 4 4 9 3 4 3 3 4 3 2 3 3 3 2 2 2 2 2 1 1 1 1 1 1 1 0 1 1 1 1 0 1 1 1 1 1 0 0 0 1 1 1 2 2
Wind_Direction
337 342 54 58 57 55 241 254 236 284 334 358 80 96 106 103 125 150 130 132 131 141 152 147 138 132 132 127 123 121 117 114 113 109 107 103 99 97 96 93 89 88 85 84 83 80 79 78 75
341 359 53 61 92 123 263 254 238 236 206 144 75 79 81 71 67 102 96 137 135 138 139 141 133 130 132 129 126 125 124 121 119 115 112 108 104 101 100 96 92 90 88 85 83 82 80 77 73
335 52 79 79 125 182 220 241 221 233 30 91 76 59 93 103 94 123 146 136 125 127 130 137 133 132 132 131 129 127 126 124 123 120 118 114 109 105 104 100 97 93 91 87 84 81 78 74 70
49 49 58 85 189 222 215 235 231 94 28 45 98 74 68 43 155 146 132 126 120 119 122 134 132 133 131 131 129 129 125 122 122 122 120 117 113 107 104 99 97 96 92 89 84 79 75 71 68
59 77 75 81 231 253 260 274 271 93 61 37 100 106 70 351 85 115 126 123 121 117 118 131 132 133 130 126 126 126 123 120 118 117 120 119 114 107 101 99 96 95 93 91 87 81 76 73 68
59 73 103 206 237 265 289 293 350 68 72 46 86 108 123 28 92 112 115 112 117 120 117 124 131 130 127 122 119 123 122 119 117 115 110 110 109 107 105 100 96 93 92 89 86 83 76 72 68
107 107 159 195 225 266 285 326 89 118 78 23 114 110 136 60 105 115 108 102 101 103 107 106 119 123 121 118 114 111 115 115 112 111 109 106 103 104 104 96 93 93 90 86 82 78 73 68 64
125 110 150 202 199 244 304 352 27 98 134 14 91 133 177 197 137 110 97 92 95 90 91 92 94 102 109 113 113 110 107 108 107 104 100 98 96 97 95 91 91 89 90 85 77 71 66 58 52
89 88 188 208 195 229 328 12 347 7 75 35 48 148 172 139 125 110 99 86 87 88 85 91 93 95 107 115 118 113 109 107 106 104 103 100 92 89 88 86 90 89 91 88 82 74 61 51 39
92 151 210 213 187 185 345 22 335 34 33 33 33 44 100 120 128 128 129 131 131 130 122 104 105 109 110 113 109 104 104 109 106 106 109 104 103 92 86 75 75 72 77 76 72 64 54 47 26
137 180 199 233 195 148 34 6 2 95 45 221 174 144 127 125 133 142 146 149 156 154 141 124 119 120 127 118 118 107 106 111 109 111 113 109 102 91 81 78 62 59 64 53 42 43 38 38 30
148 217 191 214 78 96 144 75 30 55 226 236 156 144 143 149 157 164 165 161 152 147 149 140 133 123 132 129 127 128 123 116 117 126 123 121 114 100 105 97 94 83 72 65 50 39 24 19 14
184 231 252 197 75 71 72 79 107 294 275 91 99 112 150 162 166 165 154 150 149 152 155 149 135 133 132 123 126 121 123 125 129 122 119 127 132 133 128 120 110 99 86 90 79 50 25 13 359
191 203 272 246 237 57 94 320 95 255 248 85 98 127 175 173 171 153 142 146 155 158 157 149 134 130 124 119 119 118 111 107 107 103 110 123 128 128 127 117 109 100 107 121 120 113 68 12 11
104 40 342 282 194 194 107 302 236 242 169 105 167 205 196 191 172 177 179 169 168 156 146 140 132 119 122 125 121 112 107 100 95 99 99 104 108 118 123 123 110 114 128 110 91 68 58 38 21
77 76 280 283 189 177 145 254 260 232 159 215 255 247 233 231 203 197 181 166 161 149 140 127 119 111 112 119 112 108 102 96 92 94 98 99 104 113 112 105 107 79 71 101 118 103 76 41 14
73 200 230 270 225 177 176 243 265 240 183 211 235 229 225 265 280 227 179 167 162 155 144 131 119 116 113 104 96 94 97 92 89 85 102 107 102 103 111 112 107 89 73 52 75 83 115 94 354
206 214 224 233 247 177 213 248 268 260 211 216 225 224 216 219 247 237 171 156 147 137 130 130 122 117 111 97 87 81 71 73 71 82 78 91 96 99 105 107 96 90 81 52 44 66 52 82 356
192 194 234 249 261 226 234 252 259 257 236 224 223 221 219 227 241 134 103 119 115 109 115 122 122 121 117 108 108 115 108 74 53 54 70 67 76 104 113 102 95 85 96 110 109 85 80 36 27
201 218 256 287 289 241 250 261 258 241 226 214 211 216 212 209 233 214 101 106 122 130 125 126 130 130 130 133 133 129 133 125 108 63 62 52 55 111 111 114 125 121 108 64 51 85 113 32 57
228 209 221 254 320 320 298 290 260 257 237 234 219 213 208 195 198 199 153 133 123 133 143 143 141 132 130 117 105 88 77 65 49 27 50 35 40 66 87 124 132 136 147 158 185 137 148 197 302
238 237 215 211 167 269 204 274 276 244 252 243 234 222 213 207 195 191 176 160 154 160 139 130 131 129 136 133 130 136 144 167 199 208 148 55 54 58 49 75 131 153 157 151 197 164 189 168 209
213 212 195 201 181 286 252 231 276 249 247 246 235 225 215 205 192 188 185 176 162 148 131 127 121 111 117 132 148 147 140 152 135 111 105 49 33 48 37 25 37 164 182 195 209 203 170 182 195
151 69 43 46 82 259 225 204 266 227 219 232 229 223 209 193 182 177 161 145 135 126 124 124 125 120 114 124 139 150 149 147 136 138 161 94 15 15 12 351 343 295 236 223 227 215 198 206 215
103 98 41 350 320 247 218 212 249 242 224 212 210 211 193 175 168 163 153 149 148 149 149 141 133 131 121 118 126 158 164 164 169 176 187 182 226 286 270 277 284 283 264 243 236 209 211 208 205
184 151 164 202 227 269 253 231 253 265 248 218 204 193 175 176 177 177 180 172 169 164 154 148 147 140 127 124 127 127 145 160 178 177 183 195 218 240 249 235 253 265 274 271 200 190 241 216 214
162 189 169 142 214 266 256 270 293 301 341 309 207 173 183 188 183 181 181 176 170 164 165 157 144 125 117 120 117 107 122 144 163 151 149 195 252 266 292 259 251 267 276 293 189 178 251 239 230
167 150 117 140 187 250 270 253 237 233 250 253 227 214 208 195 185 181 184 183 173 162 156 130 140 149 149 146 159 115 123 126 132 128 140 325 309 329 324 355 311 287 281 271 196 218 248 218 252
160 159 150 158 183 195 256 261 221 210 216 221 236 229 200 190 192 188 185 177 155 131 123 130 136 132 135 145 140 113 74 82 93 96 85 351 345 357 2 336 281 231 276 261 208 231 226 228 256
192 187 160 173 225 206 228 266 272 227 238 229 243 239 204 186 191 183 170 155 151 154 158 162 168 159 170 155 136 135 125 89 84 64 16 19 5 347 341 324 329 298 238 252 235 256 256 239 245